Regional Weather Roundup
Issued by NWS

Home | Current Version | Previous Version | Text Only | Print | Product List | Glossary On
Versions: 1 2 3 4 5 6 7 8 9 10 11 12 13 14 15 16 17 18 19 20 21 22 23 24 25 26 27 28 29 30 31 32 33 34 35 36 37 38 39 40 41 42 43 44 45 46 47 48 49 50
000
ASUS43 KBIS 230959
RWRND

NORTH DAKOTA REGIONAL WEATHER ROUNDUP
NATIONAL WEATHER SERVICE BISMARCK ND
500 AM CDT WED JUL 23 2014

NOTE: "FAIR" INDICATES FEW OR NO CLOUDS BELOW 12,000 FEET WITH NO
SIGNIFICANT WEATHER AND/OR OBSTRUCTIONS TO VISIBILITY.


NDZ001>003-009>011-017-231100-
NORTHWEST NORTH DAKOTA

CITY           SKY/WX    TMP DP  RH WIND       PRES   REMARKS
WILLISTON      CLEAR     64  60  87 SE3       30.22S
MINOT          CLOUDY    65  63  93 SE5       30.25S
$$

NDZ018>021-031>035-040>046-231100-
SOUTHWEST NORTH DAKOTA

CITY           SKY/WX    TMP DP  RH WIND       PRES   REMARKS
BISMARCK       MOCLDY    65  61  87 SE5       30.26R
GARRISON         N/A     66  65  96 NE5       30.25F
HETTINGER ARPT CLEAR     62  58  86 E8        30.25S
$$

NDZ004>008-012>016-024-026-027-054-231100-
NORTHEAST NORTH DAKOTA

CITY           SKY/WX    TMP DP  RH WIND       PRES   REMARKS
GRAND FORKS    CLEAR     58  56  93 N3        30.28R
DEVILS LAKE    PTCLDY    61  52  72 E5        30.28R
$$

NDZ022-023-025-028>030-036>039-047>053-231100-
SOUTHEAST NORTH DAKOTA

CITY           SKY/WX    TMP DP  RH WIND       PRES   REMARKS
FARGO          PTCLDY    58  55  90 CALM      30.27R
$$




USA.gov is the U.S. government's official web portal to all federal, state and local government web resources and services.